Home > Weather > Adama > Past weeks

Flag for Ethiopia Past Weather in Adama, Ethiopia — Yesterday and Last 2 Weeks

Now
63 °F

Scattered clouds.


Feels Like: 63 °F
Forecast: 60 / 76 °F
Wind: 7 mph from South

Location: Addis Ababa Airport

Current Time: Jul 26, 2016 at 11:39:58 AM

Latest Report: Jul 26, 2016 at 9:00 AM


Visibility: N/A

Pressure: 30.30 "Hg (25.03 "Hg at 1621m altitude)

Humidity: 77%

Dew Point: 55 °F

Location of AdamaLocation

Past Weather in Adama — Graph

°F

Adama Temperature Yesterday

Maximum temperature yesterday: 70 °F (at 2:00 PM)
Minimum temperature yesterday: 55 °F (at 3:00 AM)
Average temperature yesterday: 61 °F

High & Low Weather Summary for the Past Weeks

 TemperatureHumidityPressure
High72 °F (Jul 17, 3:00 PM)94% (Jul 11, 9:00 AM)30.42 "Hg (Jul 11, 9:00 AM)
Low54 °F (Jul 15, 3:00 AM)36% (Jul 12, 12:00 PM)30.18 "Hg (Jul 18, 5:00 PM)
Average61 °F79%30.28 "Hg
* Reported Jul 11 9:00 AM — Jul 26 9:00 AM, Adama, Weather by CustomWeather, © 2016

Note: Actual official high and low records may vary slightly from our data, if they occured in-between our weather recording intervals... More about our weather records

Advertising

Adama Weather History for the Previous 24 Hours

Scroll right to see more
 ConditionsComfort  
Time TempWeatherWind HumidityBarometerVisibility
9:00 AM
Tue, Jul 26
63 °FScattered clouds.7 mph77%30.30 "HgN/A
4:00 AM55 °FPassing clouds.3 mph88%30.24 "HgN/A
3:00 AM55 °FPartly cloudy.5 mph88%30.27 "HgN/A
1:00 AM55 °FPassing clouds.5 mph82%30.24 "HgN/A
12:00 AM57 °FPassing clouds.2 mph82%30.27 "HgN/A
10:00 PM
Mon, Jul 25
57 °FPassing clouds.5 mph82%30.30 "HgN/A
9:00 PM55 °FPassing clouds.5 mph88%30.30 "Hg5 mi
8:00 PM57 °FPassing clouds.7 mph82%30.30 "Hg5 mi
7:00 PM59 °FPassing clouds.5 mph88%30.24 "Hg4 mi
6:00 PM59 °FPassing clouds.2 mph77%30.21 "Hg4 mi
4:00 PM68 °FPassing clouds.12 mph64%30.21 "HgN/A
3:00 PM70 °FPartly sunny.14 mph57%30.21 "HgN/A
2:00 PM70 °FPartly sunny.N/A57%30.24 "HgN/A
1:00 PM68 °FPartly sunny.8 mph64%30.24 "HgN/A
12:00 PM66 °FPartly sunny.9 mph68%30.27 "HgN/A
11:00 AM64 °FPartly sunny.13 mph68%30.30 "HgN/A
Weather by CustomWeather, © 2016

See weather overviewHow to use our weather pages